TimeCST,TemperatureF,Dew PointF,Humidity,Sea Level PressureIn,VisibilityMPH,Wind Direction,Wind SpeedMPH,Gust SpeedMPH,PrecipitationIn,Events,Conditions,WindDirDegrees,DateUTC
12:55 AM,58.8,49.5,71,30.18,10.0,SSW,6.9,-,N/A,,Mostly Cloudy,200,2012-12-02 06:55:00
1:55 AM,59.7,49.6,69,30.17,10.0,South,10.4,-,N/A,,Overcast,190,2012-12-02 07:55:00
2:55 AM,59.9,50.2,70,30.16,10.0,South,15.0,-,N/A,,Overcast,190,2012-12-02 08:55:00
3:55 AM,59.5,51.4,75,30.15,10.0,SSW,12.7,-,N/A,,Scattered Clouds,210,2012-12-02 09:55:00
4:55 AM,60.8,53.1,76,30.15,10.0,SSW,16.1,23.0,N/A,,Overcast,200,2012-12-02 10:55:00
5:55 AM,60.8,52.9,75,30.16,10.0,SSW,15.0,-,N/A,,Mostly Cloudy,200,2012-12-02 11:55:00
6:55 AM,60.6,52.5,75,30.16,10.0,SSW,15.0,-,N/A,,Scattered Clouds,200,2012-12-02 12:55:00
7:55 AM,62.2,53.1,72,30.17,10.0,SSW,16.1,23.0,N/A,,Clear,210,2012-12-02 13:55:00
8:55 AM,65.3,55.9,72,30.18,10.0,SW,19.6,25.3,N/A,,Mostly Cloudy,220,2012-12-02 14:55:00
9:45 AM,66.2,57.2,73,30.17,10.0,SW,24.2,36.8,N/A,,Mostly Cloudy,220,2012-12-02 15:45:00
9:55 AM,66.6,57.7,73,30.17,10.0,SSW,24.2,36.8,N/A,,Mostly Cloudy,210,2012-12-02 15:55:00
10:55 AM,66.4,58.6,76,30.17,10.0,SSW,23.0,32.2,N/A,,Overcast,210,2012-12-02 16:55:00
11:55 AM,65.5,58.5,78,30.16,10.0,SW,19.6,25.3,N/A,,Overcast,230,2012-12-02 17:55:00
12:55 PM,65.7,58.6,78,30.14,10.0,SSW,20.7,24.2,N/A,,Overcast,210,2012-12-02 18:55:00
1:55 PM,65.7,58.8,79,30.12,10.0,SSW,18.4,-,N/A,,Overcast,210,2012-12-02 19:55:00
2:55 PM,65.1,59.2,81,30.13,10.0,SSW,11.5,-,N/A,,Overcast,200,2012-12-02 20:55:00
3:55 PM,66.0,59.2,79,30.13,10.0,SSW,13.8,21.9,N/A,,Overcast,200,2012-12-02 21:55:00
4:55 PM,65.7,59.4,80,30.14,10.0,SSW,9.2,-,N/A,,Overcast,200,2012-12-02 22:55:00
5:55 PM,64.8,60.3,85,30.15,10.0,SSW,9.2,-,N/A,,Overcast,200,2012-12-02 23:55:00
6:55 PM,64.6,61.3,89,30.16,10.0,SSW,10.4,-,N/A,,Overcast,210,2012-12-03 00:55:00
7:07 PM,64.4,60.8,88,30.16,10.0,SSW,12.7,-,N/A,,Overcast,200,2012-12-03 01:07:00
7:55 PM,64.4,60.6,88,30.14,10.0,SSE,6.9,-,N/A,,Overcast,160,2012-12-03 01:55:00
8:55 PM,63.1,58.8,86,30.16,10.0,South,9.2,-,N/A,,Mostly Cloudy,190,2012-12-03 02:55:00
9:55 PM,63.9,58.1,81,30.16,10.0,South,6.9,-,N/A,,Overcast,180,2012-12-03 03:55:00
10:55 PM,64.4,57.6,78,30.16,10.0,South,11.5,-,N/A,,Overcast,190,2012-12-03 04:55:00
11:55 PM,64.6,57.4,77,30.16,10.0,South,9.2,-,N/A,,Mostly Cloudy,190,2012-12-03 05:55:00